RH
61 61 61 60 61 62 64 64 66 67 66 66 67 67 68 68 70 69 68 68 69 71 73 74 74 74 72 49 32 28 64 36 20 14 16 21 30 29 28 21 18 15 10 8 7 6 7
58 62 60 60 61 64 66 65 65 66 66 66 66 67 69 70 69 67 67 69 72 74 76 76 75 74 69 37 19 15 15 14 14 16 15 16 28 27 33 23 24 20 19 12 8 7 6
58 60 61 62 60 64 66 66 66 67 66 65 66 67 66 66 67 68 71 74 80 78 78 77 73 56 50 41 18 21 13 16 15 16 16 14 14 24 31 40 26 23 26 21 13 9 8
63 61 60 60 61 66 65 66 68 67 65 67 68 68 67 68 72 73 76 79 80 78 78 73 67 60 56 20 20 15 15 15 13 13 17 18 12 16 30 34 33 33 29 32 15 11 9
58 58 59 59 61 63 63 66 66 64 68 68 66 66 69 77 80 80 79 80 81 79 77 73 74 75 34 27 18 17 17 17 14 15 17 13 18 18 19 34 42 37 41 29 22 12 11
61 60 60 60 63 63 61 64 66 67 68 68 67 70 74 79 79 79 81 78 75 73 65 42 46 49 26 21 21 19 16 14 16 17 20 28 34 21 26 33 45 35 29 24 22 19 11
58 59 61 60 62 62 60 63 66 67 67 67 67 70 72 75 78 80 84 59 57 59 50 40 30 27 21 19 21 21 16 17 20 21 27 25 35 44 24 22 26 32 31 28 16 12 13
60 62 61 60 63 62 62 64 67 67 66 68 69 71 73 74 80 82 74 52 53 62 82 42 25 22 18 24 28 21 18 25 27 30 24 25 32 22 26 19 20 26 34 33 22 17 17
61 62 63 65 63 62 64 65 67 67 66 67 70 72 75 80 81 77 49 43 43 53 79 38 20 25 22 23 23 28 24 27 31 30 28 30 23 18 21 24 23 18 19 26 26 19 16
63 63 64 65 67 65 66 66 68 69 66 67 71 74 79 80 80 75 63 49 48 63 86 26 22 25 19 18 23 22 23 28 32 38 39 28 20 21 26 26 21 26 16 17 20 24 28
64 63 64 64 64 69 68 67 70 67 64 66 70 73 80 80 91 79 62 60 59 80 74 15 18 16 15 16 16 24 18 28 42 41 42 45 38 26 24 23 26 37 26 19 20 25 26
64 64 67 64 68 69 70 70 68 66 64 67 70 73 80 72 90 77 74 78 85 92 61 20 16 19 20 16 15 18 17 19 36 41 37 39 31 31 21 19 21 22 29 30 21 22 33
68 65 66 65 66 64 64 66 64 65 65 69 74 78 81 70 92 77 84 93 91 72 26 23 26 25 25 20 19 21 21 27 60 65 53 36 33 28 18 21 19 22 44 54 36 32 37
65 64 64 64 66 64 63 68 68 65 69 74 81 83 80 81 85 86 94 92 67 43 31 24 27 28 27 24 27 26 28 33 42 46 54 53 56 33 28 30 37 37 56 71 48 40 36
63 64 61 64 67 65 64 67 62 66 75 80 82 92 90 91 86 91 97 95 78 41 27 32 32 30 34 30 32 34 37 48 50 53 73 63 53 34 24 26 31 41 50 36 41 43 40
64 63 64 65 65 65 66 65 63 69 74 80 94 89 91 83 88 95 97 93 64 28 27 31 48 39 47 38 44 44 42 59 62 54 49 59 79 34 33 28 28 31 28 49 60 73 61
68 64 64 64 64 64 64 65 66 70 78 78 94 92 84 77 89 94 96 98 50 27 26 35 42 42 41 43 42 46 41 54 54 51 48 69 69 51 42 41 39 36 73 55 52 65 65
73 72 66 63 64 63 64 65 65 71 80 81 93 99 80 79 95 98 98 65 50 32 29 33 40 42 45 46 47 47 42 37 48 51 60 69 83 90 54 33 35 60 68 73 91 85 75
72 71 69 65 64 65 64 62 65 71 75 90 98 98 78 84 98 97 86 57 39 35 34 39 41 38 42 49 62 46 42 35 35 38 54 55 79 88 53 39 38 50 46 52 71 90 88
73 71 67 64 64 62 63 62 65 70 72 90 96 99 97 95 98 88 84 72 51 35 37 33 37 38 46 52 46 54 45 37 39 35 53 56 70 80 90 74 64 67 54 47 61 89 80
76 72 71 69 66 63 64 64 66 69 72 93 98 96 80 99 97 95 81 68 61 55 40 40 46 47 53 66 56 53 48 43 39 43 47 58 97 75 66 56 49 53 51 43 49 49 68
77 76 76 75 69 65 62 65 68 70 71 94 96 99 80 80 82 86 78 88 64 50 48 51 56 49 47 62 58 64 52 51 57 48 58 58 84 66 68 47 45 50 43 42 39 35 38
80 78 78 74 71 72 66 66 69 72 76 94 91 68 79 83 76 83 88 73 61 52 51 42 45 54 61 53 51 52 53 52 54 58 60 64 73 76 81 56 59 75 60 44 41 34 38
81 78 76 76 70 72 66 68 71 72 77 96 88 80 95 97 90 82 56 58 58 49 56 48 47 56 52 43 49 51 49 48 50 52 50 68 71 74 85 71 98 54 31 31 33 40 66
83 80 76 75 74 73 73 73 74 75 73 95 90 84 97 98 84 66 56 55 50 52 54 50 50 49 50 54 79 81 83 68 57 50 51 51 64 93 98 91 61 50 41 53 58 64 57
83 82 78 78 80 75 75 75 75 73 72 91 90 84 80 96 92 57 64 57 74 74 70 62 49 49 54 72 93 97 92 66 66 48 34 46 55 88 100 97 94 67 64 56 52 81 57
84 83 82 81 82 81 77 75 78 73 70 86 92 85 91 98 80 69 82 81 62 69 90 69 63 62 56 93 96 96 91 53 77 67 63 69 80 94 95 97 91 81 69 55 80 84 60
84 84 83 82 82 83 82 78 77 74 70 82 86 83 94 99 83 67 67 79 71 74 92 70 79 82 89 91 95 92 95 90 82 64 62 65 80 89 84 91 90 52 45 74 79 55 71
85 84 82 80 81 81 83 81 78 75 72 72 89 82 87 97 92 78 70 70 74 76 84 79 78 73 82 96 96 96 96 93 78 87 50 78 66 83 69 78 47 40 46 65 63 72 68
Wind_Speed
6 6 6 6 6 7 7 8 9 10 11 12 13 14 16 17 18 19 19 19 18 18 18 18 18 19 10 3 5 3 6 7 8 9 6 7 8 6 5 6 8 14 14 15 21 18 14
3 3 5 5 6 7 6 8 9 10 11 12 13 14 16 17 19 20 20 21 21 20 18 15 13 14 2 4 6 9 8 6 4 6 10 7 5 11 10 8 7 9 17 15 17 20 17
2 2 3 5 6 6 6 7 8 10 11 12 12 14 16 18 20 22 23 22 21 20 17 12 7 4 4 4 5 9 11 7 8 4 5 7 9 5 10 11 9 13 13 13 17 11 16
3 2 3 5 5 5 6 7 9 11 12 13 15 15 17 19 21 22 21 19 18 19 14 7 3 3 3 2 4 8 8 9 10 10 5 9 8 8 4 7 9 7 8 6 12 13 14
2 2 3 4 5 6 7 8 10 11 12 13 16 16 18 19 22 22 24 25 19 16 10 5 2 2 4 2 12 10 6 5 7 8 6 11 4 7 5 5 6 6 8 10 10 10 10
1 2 4 4 5 5 6 8 10 11 12 13 14 16 19 20 22 24 27 25 7 3 6 6 9 2 3 8 8 9 5 5 6 7 9 3 3 5 3 5 12 7 11 10 15 5 14
3 3 3 4 4 5 6 7 9 11 11 13 13 16 18 20 23 25 15 4 7 6 8 4 4 2 4 7 10 7 6 7 2 6 6 7 6 12 10 14 19 18 21 22 15 9 18
3 4 5 5 4 5 6 7 9 10 12 13 14 16 18 21 24 23 10 7 5 5 6 9 8 7 3 3 7 7 5 6 6 8 9 8 13 15 15 18 20 21 23 26 22 19 18
4 5 6 6 6 6 6 7 8 10 13 14 15 17 19 21 23 8 7 9 7 7 2 4 3 3 5 4 5 5 7 5 3 6 5 7 16 23 22 21 21 23 23 21 22 16 22
4 4 6 7 7 6 7 8 9 11 13 14 16 18 19 22 5 6 6 8 6 3 4 4 4 4 6 5 4 3 1 3 6 8 11 7 8 19 24 23 20 23 19 22 21 16 16
6 5 6 7 7 6 8 8 8 11 13 14 15 17 19 15 4 5 7 7 7 3 8 6 2 1 7 7 10 3 5 2 2 7 4 12 16 17 21 20 23 17 15 21 23 16 15
6 6 7 4 4 5 5 6 8 10 12 13 15 16 17 4 1 5 8 8 2 6 1 0 3 9 11 10 7 3 6 4 3 3 8 11 12 15 21 16 23 25 22 20 16 15 17
7 7 6 4 5 5 6 7 7 9 11 13 15 17 13 5 4 7 6 3 6 9 8 5 7 10 9 9 5 12 11 9 2 8 15 20 10 16 8 15 19 19 14 9 10 12 11
10 9 9 8 7 5 4 7 5 8 10 13 15 16 8 2 5 6 4 4 11 7 5 8 9 14 2 13 9 10 8 6 7 10 10 9 16 17 20 16 15 10 7 7 10 9 12
12 10 8 8 6 6 5 5 5 7 11 13 18 3 3 4 6 4 2 8 8 3 5 7 10 5 6 15 8 10 9 6 7 11 8 8 10 25 10 16 4 9 10 11 9 7 9
14 13 9 9 6 6 6 6 5 8 10 12 4 3 2 5 5 3 6 3 1 2 5 4 3 5 7 9 8 13 7 7 7 8 5 6 13 8 22 8 8 11 9 6 3 3 7
14 14 13 10 10 7 6 6 5 8 11 9 2 0 3 4 3 5 5 4 3 7 4 4 5 5 5 8 9 9 6 5 7 8 9 5 3 14 14 8 17 16 10 7 1 3 3
13 13 14 13 10 9 6 6 5 8 11 2 3 3 4 4 5 2 2 4 3 2 4 3 3 4 4 8 5 6 4 9 2 6 6 4 5 6 18 21 11 10 11 12 4 8 5
15 15 15 13 12 10 8 6 6 5 6 3 1 1 3 3 4 0 5 4 2 2 3 3 3 3 5 5 5 5 7 12 8 13 10 7 4 8 14 6 9 8 9 8 5 3 5
16 15 15 16 14 13 10 7 7 5 4 1 3 2 4 5 2 1 1 3 2 5 2 1 3 5 4 5 6 6 11 7 14 14 16 7 5 6 7 11 14 15 14 11 7 3 6
16 16 16 16 15 14 11 9 8 5 3 1 3 4 6 2 3 2 2 1 3 3 5 1 1 4 6 5 9 10 9 17 11 10 6 4 3 6 13 15 16 18 21 16 13 10 8
19 18 17 16 15 14 13 10 10 6 2 0 5 3 2 2 7 7 5 4 4 5 1 2 4 6 6 4 6 14 12 7 6 3 6 8 4 13 14 13 14 19 18 19 17 15 13
20 19 18 17 16 16 14 12 12 9 4 2 3 1 4 3 2 5 5 5 8 1 2 1 5 4 5 10 5 5 7 10 12 13 12 8 4 2 7 6 13 9 10 15 12 12 9
18 19 19 19 18 16 15 14 13 11 10 1 3 1 4 3 3 6 7 10 9 5 5 3 4 4 3 7 7 7 13 17 16 18 12 7 2 2 6 5 4 10 9 13 13 6 10
19 20 19 19 19 16 15 14 13 12 9 2 3 2 3 2 3 7 7 6 5 3 4 6 4 3 3 6 5 8 6 5 6 11 16 17 7 3 2 3 9 11 9 8 4 4 9
18 19 19 18 18 16 15 13 12 12 10 2 3 2 2 4 6 5 3 3 1 1 4 2 4 3 3 2 4 1 3 3 5 7 3 14 13 7 2 5 5 3 19 21 10 3 14
20 19 18 18 17 17 18 16 14 14 11 3 3 1 1 3 5 2 2 4 2 2 3 2 2 3 5 2 1 3 4 4 3 3 5 4 2 11 9 6 5 11 14 17 4 5 14
20 20 18 17 17 17 17 16 16 15 13 5 3 3 2 2 5 5 5 1 3 1 5 3 6 3 1 2 3 5 3 3 4 4 5 2 2 3 2 1 7 9 12 3 7 13 5
20 19 18 17 17 17 18 17 15 15 15 10 2 2 2 2 5 1 6 6 4 3 3 3 6 2 5 2 1 1 2 3 2 5 2 5 4 1 3 5 17 11 10 8 7 3 10
Wind_Direction
22 41 34 28 20 17 22 26 21 12 6 1 355 350 342 338 336 331 327 322 320 318 317 316 316 323 339 307 54 276 260 338 317 334 322 319 326 321 284 283 307 251 261 269 279 280 275
11 39 24 20 11 5 33 21 15 9 5 357 351 346 341 336 330 326 324 322 319 317 314 312 315 323 247 92 326 1 348 322 321 338 325 328 289 314 287 273 264 313 306 268 265 270 269
287 19 13 5 3 5 21 13 5 1 359 353 348 345 342 336 329 325 322 318 313 312 313 316 322 298 310 262 358 337 4 330 321 288 251 287 304 333 337 324 309 313 303 307 267 257 269
356 360 350 355 0 20 12 7 3 357 354 350 349 343 338 332 323 319 314 306 303 300 300 316 317 288 273 329 336 344 346 331 324 313 323 279 250 286 260 277 317 299 290 255 251 259 264
289 321 328 346 350 359 5 8 1 358 353 353 347 343 338 329 323 324 321 313 303 284 273 278 310 213 48 33 1 319 295 298 310 305 290 292 266 211 297 301 301 237 252 256 279 228 247
295 306 309 328 345 355 356 5 2 358 351 345 343 345 340 333 331 329 323 312 292 293 219 255 261 327 5 342 326 301 347 339 326 318 333 306 280 221 194 210 235 226 256 265 250 291 238
280 295 298 312 330 346 346 354 358 353 349 345 343 344 342 336 331 327 339 1 13 14 21 360 317 331 299 320 302 327 313 326 355 358 328 282 274 238 239 226 252 261 276 275 274 252 254
277 290 295 308 321 329 331 339 346 348 347 345 345 345 343 337 327 323 328 62 127 188 331 285 230 216 281 245 284 301 44 41 13 350 328 332 283 271 267 242 254 253 252 259 277 274 285
268 297 295 297 309 307 316 323 333 341 345 345 346 345 341 335 323 332 60 42 48 20 223 290 179 230 269 245 278 352 36 343 303 309 333 298 297 303 296 276 249 255 258 267 262 271 272
245 282 296 298 306 309 318 316 325 336 343 344 345 342 338 334 342 320 63 11 359 16 91 141 207 188 283 262 210 129 236 216 345 324 311 270 290 297 299 289 284 253 255 265 269 271 255
233 266 277 296 284 287 304 312 327 336 341 339 338 339 334 334 291 11 337 352 330 38 67 321 80 143 301 353 291 246 247 172 30 330 342 275 299 291 287 295 296 304 306 252 260 267 271
237 243 282 270 299 305 316 321 326 331 336 334 332 334 340 12 200 343 344 315 353 50 351 34 57 359 347 321 294 341 17 23 169 320 296 282 276 271 261 276 292 293 293 292 260 249 256
240 235 263 235 260 293 305 320 320 329 327 327 326 324 323 311 315 337 320 351 47 88 269 27 348 333 298 281 322 21 356 353 33 353 348 325 321 328 215 269 282 271 301 283 259 246 252
240 237 239 249 257 278 293 323 320 328 323 323 319 317 286 12 332 320 336 58 70 261 27 6 335 299 294 16 9 345 322 336 47 17 320 341 324 14 319 312 316 297 269 280 277 256 271
231 236 232 249 259 238 283 306 324 324 324 326 315 266 279 339 323 345 30 53 178 350 19 337 318 358 6 358 345 345 353 30 50 27 3 310 299 307 329 333 278 301 268 289 303 292 273
229 233 231 236 229 252 268 282 302 322 326 330 319 276 355 311 349 2 70 148 253 26 14 333 313 28 349 338 352 354 321 56 1 353 2 308 298 308 330 302 330 349 339 277 258 294 279
221 224 230 233 245 243 259 262 294 317 328 332 294 72 283 328 5 42 112 216 297 20 339 9 3 311 325 332 355 330 299 78 5 348 15 351 292 305 324 11 330 326 18 2 281 131 187
219 228 226 236 235 233 243 254 273 315 329 296 260 46 288 12 52 26 143 348 341 284 357 301 276 288 347 352 310 318 291 356 316 314 353 339 271 288 301 289 46 78 59 34 7 352 311
224 225 224 224 226 228 237 238 260 304 352 326 44 116 275 83 126 185 262 255 272 291 342 20 335 0 357 331 310 289 346 340 6 5 357 339 338 325 321 356 7 45 2 8 307 219 279
220 223 221 223 223 228 228 229 237 274 330 58 104 108 332 32 166 186 195 302 290 148 236 279 305 315 309 320 299 304 315 310 342 327 319 297 222 223 259 292 310 315 321 312 253 256 293
216 218 217 220 222 222 226 222 229 254 282 108 66 230 188 194 284 232 317 305 314 284 167 150 269 336 336 320 308 276 316 319 329 318 334 349 292 316 293 307 311 304 302 312 307 290 267
213 212 213 215 214 218 220 215 229 236 256 161 139 144 299 235 144 171 190 229 243 280 244 182 301 320 344 314 283 304 318 329 267 357 13 333 295 325 302 290 282 289 289 287 284 285 276
213 213 212 210 213 216 214 214 225 224 202 245 271 356 95 280 241 149 206 199 220 168 337 238 259 286 298 286 298 290 276 273 263 279 281 259 256 327 270 301 324 316 235 248 268 286 287
213 211 210 209 210 216 207 210 217 222 219 355 270 123 101 259 220 202 218 203 226 239 231 287 322 284 315 353 326 298 271 264 253 249 221 228 250 234 276 312 345 244 292 301 294 0 32
212 210 209 209 210 208 204 203 212 218 226 235 299 0 109 219 253 293 256 242 252 259 256 242 250 110 27 34 352 343 323 346 262 227 218 205 206 276 264 224 268 292 323 18 50 39 19
210 208 210 208 206 203 203 205 208 212 215 221 276 282 107 125 243 245 321 338 148 253 318 328 125 118 86 86 62 201 276 300 292 320 287 183 196 183 172 245 236 27 5 344 309 199 359
207 208 207 206 204 202 202 203 206 202 207 203 272 360 35 153 269 181 170 191 230 99 146 9 26 15 122 108 125 211 254 276 263 288 351 3 170 221 238 266 266 34 1 339 297 294 325
204 201 201 203 204 203 199 199 196 196 202 184 262 229 148 206 285 295 321 321 333 136 144 246 32 307 40 117 153 242 223 281 324 315 329 301 308 276 281 306 274 349 335 305 231 276 316
197 200 200 200 203 205 195 197 195 193 196 186 245 233 156 197 245 353 265 262 242 236 149 186 193 40 199 125 349 15 332 341 345 277 300 270 181 250 261 257 320 348 337 227 243 221 266